NOAA-15
1 25338U 98030A 21007.82897549 .00000023 00000-0 28113-4 0 9997
2 25338 98.6994 37.6499 0010883 33.4424 326.7441 14.26007536178351
GO-32
1 25397U 98043D 21007.46702942 -.00000008 00000-0 16165-4 0 9996
2 25397 98.7530 313.6272 0001499 144.2653 215.8626 14.23698838168582
ISS
1 25544U 98067A 21007.96816279 .00001613 00000-0 37065-4 0 9994
2 25544 51.6457 55.2089 0000614 186.8385 236.9442 15.49266603263765
NO-44
1 26931U 01043C 21007.31257150 -.00000023 00000-0 22766-4 0 9996
2 26931 67.0522 336.3025 0007427 272.5833 87.4418 14.30601861 6195
SO-50
1 27607U 02058C 21007.62565150 .00000011 00000-0 21926-4 0 9993
2 27607 64.5559 110.1184 0029409 93.7869 266.6597 14.75700314970986
CO-55
1 27844U 03031E 21007.58918678 .00000050 00000-0 42239-4 0 9993
2 27844 98.6816 18.2347 0009866 178.7399 181.3805 14.22280621909151
CO-57
1 27848U 03031J 21007.67547478 .00000044 00000-0 39609-4 0 9993
2 27848 98.6877 18.8875 0009530 191.3379 168.7585 14.21861681908996
RS-22
1 27939U 03042A 21007.74990740 .00000094 00000-0 25476-4 0 9990
2 27939 98.1157 146.2215 0014100 70.9018 289.3715 14.66930727923964
NOAA-18
1 28654U 05018A 21007.80114169 .00000080 00000-0 67874-4 0 9993
2 28654 99.0179 71.8630 0014399 19.2815 340.8898 14.12571046805856
CO-58
1 28895U 05043F 21007.59310240 .00000139 00000-0 35631-4 0 9993
2 28895 98.0353 144.5926 0016625 1.8165 358.3095 14.63851116810709
Falconsat-3
1 30776U 07006E 21007.52573595 .00004000 00000-0 10137-3 0 9996
2 30776 35.4353 53.2761 0003354 237.9464 122.0938 15.39262019768286
CO-65
1 32785U 08021C 21007.61951541 .00000303 00000-0 38140-4 0 9994
2 32785 97.5935 352.8928 0013130 169.8088 190.3398 14.88606865688311
AAUSAT2
1 32788U 08021F 21007.50242786 .00000342 00000-0 35864-4 0 9992
2 32788 97.4972 9.0153 0013256 90.1151 270.1590 14.95336842689800
DO-64
1 32789U 08021G 21007.57630482 .00001774 00000-0 11792-3 0 9997
2 32789 97.3959 49.0337 0011205 342.6211 17.4633 15.08369395692579
CO-66
1 32791U 08021J 21007.39894278 .00000445 00000-0 50001-4 0 9996
2 32791 97.5564 358.7297 0014170 138.0867 222.1439 14.91240018688776
RS-30
1 32953U 08025A 21007.66378369 .00000028 00000-0 12906-3 0 9996
2 32953 82.5032 150.9321 0018742 329.1413 30.8562 12.43099398573007
PRISM
1 33493U 09002B 21007.83162371 .00000802 00000-0 74400-4 0 9993
2 33493 98.1694 322.8786 0016566 96.7387 263.5719 14.97372360650298
NOAA-19
1 33591U 09005A 21007.82043412 .00000043 00000-0 48730-4 0 9992
2 33591 99.1929 24.4641 0013377 220.2235 139.7947 14.12447476614247
TISAT-1
1 36799U 10035E 21007.45779818 .00000582 00000-0 64153-4 0 9990
2 36799 98.2015 191.7689 0012680 26.8131 333.3739 14.91563415569336
JUGNU
1 37839U 11058B 21007.61978639 .00000304 00000-0 20220-4 0 9991
2 37839 19.9607 124.5965 0018941 118.7510 269.9067 14.12699556477692
SRMSAT
1 37841U 11058D 21007.23787243 .00000291 00000-0 14473-4 0 9999
2 37841 19.9702 195.4617 0011854 322.9576 193.3013 14.10682390476932
AO-71
1 37854U 11061E 21007.51365607 .00002583 00000-0 13429-3 0 9999
2 37854 101.7125 210.3898 0156213 174.7755 185.5134 15.08026693502229
HRBE
1 37855U 11061F 21007.59120166 .00002036 00000-0 10588-3 0 9993
2 37855 101.7260 207.5630 0168735 188.8729 170.9491 15.07052805501946
HORYU-2
1 38340U 12025D 21007.75085994 .00000179 00000-0 33824-4 0 9996
2 38340 98.2554 71.9473 0012710 107.9839 252.2756 14.75956927465090
RS-40
1 38735U 12041C 21007.56052318 .00000037 00000-0 19304-3 0 9994
2 38735 82.4764 233.3881 0017770 76.2638 284.0415 12.42581640383204
BEESAT-3
1 39135U 13015F 21007.48191864 .00001663 00000-0 88833-4 0 9992
2 39135 64.8672 2.2506 0019613 209.9433 150.0573 15.18804226426191
BEESAT-2
1 39136U 13015G 21007.41341366 .00001444 00000-0 79408-4 0 9995
2 39136 64.8741 8.2144 0030022 263.9624 95.8081 15.18183700426065
ZACUBE-1
1 39417U 13066B 21007.69906016 .00000334 00000-0 48091-4 0 9993
2 39417 97.5784 0.5069 0057991 329.5109 30.2737 14.81403499385276
TRITON-1
1 39427U 13066M 21007.81730295 .00000224 00000-0 43286-4 0 9991
2 39427 97.7553 323.7160 0114288 143.9253 216.9734 14.68127902381842
GOMX-1
1 39430U 13066Q 21007.70286194 .00000186 00000-0 43149-4 0 9992
2 39430 97.8070 300.0572 0149383 261.2332 97.1934 14.59518521379593
LO-74
1 39440U 13066AA 21007.53498953 .00000363 00000-0 56916-4 0 9995
2 39440 97.6556 345.0334 0080918 38.5319 322.1630 14.76134920382688
AO-73
1 39444U 13066AE 21007.71272734 .00000394 00000-0 54395-4 0 9999
2 39444 97.5706 2.8432 0056870 320.5466 39.1613 14.82286820384213
SPROUT
1 39770U 14029E 21007.78934236 .00000755 00000-0 88057-4 0 9993
2 39770 97.9076 119.3771 0009348 23.1652 336.9966 14.88112294359445
DUCHIFAT-1
1 40021U 14033M 21007.56343201 .00000711 00000-0 77532-4 0 9999
2 40021 97.9594 306.2151 0012457 341.1089 18.9665 14.91136189356300
NANOSATCBR1
1 40024U 14033Q 21007.56772898 .00000519 00000-0 59391-4 0 9999
2 40024 97.9408 301.8975 0011889 346.5745 13.5154 14.90268049355637
DTUSAT-2
1 40030U 14033W 21007.53651103 .00000374 00000-0 45942-4 0 9994
2 40030 97.9110 294.8908 0011692 351.2481 8.8530 14.88862767355889
EO-80
1 40032U 14033Y 21007.56210022 .00000335 00000-0 41736-4 0 9994
2 40032 97.9116 294.9207 0011624 352.1356 7.9677 14.88816102355352
ANTELSAT
1 40034U 14033AA 21007.55395073 .00000255 00000-0 44719-4 0 9990
2 40034 97.6902 219.2086 0059742 59.6851 301.0250 14.74376126352489
VELOX-1
1 40057U 14034E 21007.89421974 .00000356 00000-0 56996-4 0 9995
2 40057 98.3051 156.8365 0010486 205.0443 155.0263 14.78035409351827
DAURIA DX 1
1 40071U 14037C 21007.83856946 .00000115 00000-0 22265-4 0 9994
2 40071 98.4573 203.6070 0008053 194.5731 165.5248 14.81438652351512
HODOYOSHI-1
1 40299U 14070B 21007.83472432 .00000756 00000-0 33660-4 0 9999
2 40299 97.3049 85.6467 0012493 187.8994 309.7856 15.24405967342942
CHUBUSAT-1
1 40300U 14070C 21007.79622928 .00000842 00000-0 38721-4 0 9993
2 40300 97.2649 76.6050 0018618 210.3327 269.3962 15.22872103342605
QSAT-EOS
1 40301U 14070D 21007.81181013 .00002452 00000-0 92124-4 0 9998
2 40301 97.2732 83.4524 0024551 179.9472 319.4915 15.27850315343124
FIREBIRD FU3
1 40377U 15003B 21007.85759339 .00002488 00000-0 95877-4 0 9991
2 40377 99.0836 115.8528 0120457 351.3253 8.5894 15.21211821328370
FIREBIRD FU4
1 40378U 15003C 21007.83881568 .00002539 00000-0 97600-4 0 9993
2 40378 99.0841 115.9466 0120566 351.2303 8.6819 15.21249502328370
GRIFEX
1 40379U 15003D 21007.79364542 .00001620 00000-0 69887-4 0 9993
2 40379 99.0856 106.5114 0130896 20.4357 340.2040 15.17232701327822
NO-84
1 40654U 15025D 21006.44773165 .00014759 00000-0 14255-3 0 1479
2 40654 54.9846 81.0543 0098544 359.4835 0.6149 15.60780367200640
DEORBITSAIL
1 40719U 15032E 21007.67566217 .00000447 00000-0 70224-4 0 9996
2 40719 97.8474 257.0093 0014959 268.6495 91.3001 14.77199648296249
NUDT-PHONESAT
1 40900U 15049B 21007.76864137 .00003002 00000-0 12209-3 0 9996
2 40900 97.4262 23.0247 0011981 353.7602 60.4493 15.25258965294323
XW-2A
1 40903U 15049E 21007.84050260 .00002713 00000-0 61000-4 0 9994
2 40903 97.2607 62.7143 0011109 236.1577 177.7396 15.44173705298001
